Total_Precipitation_Accumulation
0.96 1.15 1.54 2.79 5.15 4.65 1.62 0.59 0.39 0.34 0.42 0.44 0.42 0.40 0.40 0.41 0.34 0.30 0.19 0.04 0.01 0.11 0.10 0.04 0.02 0.07 0.25 0.24 0.39 0.42 0.32 0.07 0.08 0.13 0.25 0.33 0.66 0.42 0.23 0.25 0.29 0.76 0.68 0.45 0.68
1.12 1.50 2.03 2.91 3.64 3.98 1.35 0.47 0.33 0.27 0.23 0.22 0.36 0.46 0.51 0.56 0.31 0.18 0.06 0.10 0.13 0.15 0.14 0.04 0.04 0.10 0.29 0.26 0.47 0.51 0.07 0.02 0.08 0.13 0.26 0.53 0.60 0.55 0.37 0.34 0.49 0.83 1.81 1.85 1.77
1.53 1.88 2.26 2.00 3.21 2.59 1.37 0.60 0.29 0.24 0.22 0.29 0.41 0.55 0.56 0.50 0.44 0.10 0.22 0.18 0.36 0.48 0.31 0.25 0.12 0.18 0.24 0.27 0.27 0.39 0.08 0.04 0.10 0.21 0.28 0.54 0.87 0.96 0.66 0.59 0.68 1.09 1.76 2.97 3.17
2.35 2.40 2.15 2.03 2.40 2.19 1.81 0.62 0.26 0.33 0.43 0.46 0.63 0.66 0.70 0.67 0.28 0.17 0.39 0.15 0.25 0.68 0.40 0.51 0.42 0.33 0.19 0.19 0.12 0.36 0.10 0.04 0.10 0.16 0.19 0.47 0.85 1.00 0.96 0.62 0.64 0.65 1.13 2.40 3.25
2.29 1.74 1.50 1.60 1.57 1.63 1.19 0.61 0.37 0.59 0.59 0.61 1.16 1.28 0.96 0.64 0.13 0.13 0.27 0.17 0.11 0.45 0.49 0.53 0.66 0.55 0.24 0.08 0.16 0.13 0.09 0.04 0.04 0.08 0.10 0.13 0.44 0.56 0.68 0.37 0.50 0.38 0.51 1.34 2.38
0.97 0.61 0.67 1.12 1.28 1.09 0.86 0.52 0.77 0.70 0.74 0.76 1.59 1.93 1.01 0.44 0.02 0.00 0.04 0.19 0.17 0.33 0.54 0.62 0.76 0.64 0.58 0.12 0.20 0.09 0.11 0.09 0.05 0.06 0.04 0.03 0.08 0.50 0.35 0.29 0.47 0.33 0.30 0.48 1.34
0.62 0.60 0.66 0.72 1.04 0.73 0.63 0.60 0.57 0.58 0.85 1.46 1.66 2.05 1.07 0.30 0.03 0.03 0.07 0.08 0.25 0.44 0.61 0.55 0.77 1.00 0.83 0.36 0.08 0.13 0.17 0.26 0.18 0.07 0.09 0.06 0.06 0.28 0.24 0.35 0.42 0.26 0.19 0.22 0.46
0.91 0.87 0.97 1.22 0.88 0.66 0.57 0.47 0.54 0.61 1.15 2.11 1.92 1.99 1.03 0.38 0.18 0.07 0.09 0.13 0.21 0.57 0.81 0.82 1.08 1.28 0.85 0.58 0.16 0.27 0.54 0.40 0.11 0.09 0.10 0.16 0.03 0.04 0.20 0.57 0.48 0.37 0.15 0.16 0.24
0.77 0.80 0.85 0.97 0.95 0.67 0.43 0.56 0.63 1.01 1.53 2.16 1.80 1.48 1.03 0.46 0.40 0.16 0.21 0.21 0.20 0.62 1.10 1.28 1.57 1.87 1.24 1.36 0.82 0.42 0.47 0.23 0.07 0.05 0.13 0.21 0.08 0.03 0.10 0.49 0.43 0.46 0.19 0.11 0.15
0.58 0.73 0.80 1.01 0.75 0.80 0.68 0.79 0.98 1.41 1.98 2.34 1.72 1.48 0.77 0.55 0.48 0.48 0.52 0.38 0.27 0.89 2.00 1.83 1.70 2.19 1.86 2.19 1.39 0.44 0.15 0.07 0.08 0.03 0.14 0.16 0.12 0.07 0.07 0.18 0.39 0.41 0.24 0.14 0.09
0.69 0.70 0.91 1.29 1.21 1.19 1.49 1.90 1.87 1.84 1.76 1.58 1.09 0.50 0.51 0.70 0.69 0.94 0.67 0.99 0.53 1.39 2.66 2.34 1.89 1.66 1.44 1.06 0.74 0.48 0.43 0.24 0.03 0.05 0.07 0.12 0.07 0.12 0.15 0.16 0.29 0.44 0.29 0.14 0.08
1.19 1.22 0.94 1.38 1.74 2.08 2.19 1.86 1.82 1.88 1.66 0.89 0.60 0.32 0.48 1.18 1.29 1.30 1.02 0.87 0.66 0.95 2.07 2.75 2.07 0.52 0.73 1.03 1.17 0.68 0.59 0.31 0.16 0.10 0.17 0.14 0.19 0.06 0.14 0.19 0.16 0.27 0.30 0.13 0.07
1.07 1.27 1.22 1.80 2.24 2.25 1.81 1.87 1.91 2.07 2.46 1.24 0.86 0.96 0.98 1.60 1.23 1.46 1.28 0.97 0.55 0.65 1.83 2.09 1.31 0.71 0.94 1.48 1.88 1.25 0.61 0.46 0.53 0.31 0.34 0.30 0.32 0.14 0.12 0.14 0.16 0.16 0.22 0.18 0.08
1.13 1.28 1.40 2.06 2.99 2.23 2.19 2.36 1.85 1.71 2.38 1.53 1.32 1.55 1.48 1.84 1.35 0.90 1.15 1.18 0.78 0.69 1.37 1.73 0.92 0.96 0.92 1.39 1.55 1.71 0.40 0.45 0.78 1.00 0.82 0.43 0.70 0.06 0.05 0.14 0.07 0.04 0.13 0.18 0.10
1.26 1.35 1.46 2.35 3.04 2.41 2.12 2.01 2.07 2.70 3.02 2.03 1.66 1.67 1.76 1.59 1.56 0.93 1.16 1.37 0.75 0.61 1.35 1.57 1.08 1.09 1.12 1.13 1.09 1.59 0.58 0.70 1.10 1.16 1.29 0.66 0.97 0.22 0.02 0.07 0.08 0.07 0.06 0.12 0.11
1.31 1.17 1.41 2.09 2.54 1.84 1.63 2.19 2.89 3.18 2.33 2.25 1.87 2.20 2.10 1.46 1.04 1.33 1.73 1.60 1.01 0.78 0.86 0.86 0.93 1.10 0.98 0.96 1.07 1.05 1.48 1.36 1.53 1.82 2.50 0.56 0.62 0.55 0.28 0.29 0.19 0.10 0.09 0.12 0.15
1.18 1.15 1.03 1.37 2.05 2.18 2.24 2.97 3.62 2.14 1.29 2.09 2.02 1.86 1.96 1.30 0.94 1.07 2.00 1.95 1.80 1.69 1.66 1.36 1.26 1.55 1.04 1.67 1.86 2.08 3.29 4.29 3.87 3.27 1.46 0.46 0.67 0.87 0.53 0.44 0.34 0.18 0.14 0.13 0.17
1.44 1.57 1.26 0.84 1.57 2.70 3.13 3.55 2.95 0.84 1.21 1.81 1.70 1.92 1.82 0.91 1.09 1.42 1.64 1.46 1.04 1.15 1.18 1.48 1.76 1.89 1.41 1.73 2.32 2.48 3.03 3.30 2.48 1.35 0.89 0.69 1.43 1.41 0.89 0.58 0.36 0.26 0.24 0.15 0.20
1.54 1.72 2.18 1.51 1.70 2.64 3.47 3.83 1.47 1.30 1.32 2.05 2.44 2.84 1.89 1.00 1.60 2.12 1.37 1.22 1.16 0.97 1.61 1.48 1.55 1.21 1.07 1.19 2.39 2.50 2.60 1.63 2.26 1.37 1.46 1.31 1.09 1.18 0.96 0.59 0.37 0.38 0.25 0.28 0.34
2.03 2.08 2.32 1.66 1.92 3.24 4.12 2.73 1.27 1.42 1.95 2.06 2.34 1.81 1.76 1.27 1.98 1.71 1.79 1.28 0.76 0.48 0.76 1.57 1.74 1.06 1.23 1.28 1.81 1.60 1.48 2.38 3.39 2.92 1.84 1.02 0.86 1.79 1.25 1.04 0.61 0.54 0.60 0.52 0.52
1.78 2.85 2.21 1.81 2.77 4.29 3.96 2.04 1.34 1.31 2.02 2.16 1.42 1.09 0.96 1.26 1.17 1.24 1.63 1.51 0.79 0.49 0.47 1.04 1.94 1.45 1.22 1.78 1.77 1.90 2.58 2.24 2.22 1.94 2.27 1.68 2.09 2.54 2.12 1.93 1.62 1.15 1.14 0.98 0.98
2.38 3.04 2.31 2.03 4.13 3.27 2.21 1.60 1.49 1.60 1.81 1.79 1.61 1.16 0.83 0.87 1.57 1.39 1.37 1.33 0.82 0.66 0.92 1.09 2.36 1.62 0.96 0.66 0.94 1.51 1.61 1.72 3.21 2.17 1.91 2.04 2.93 2.69 2.84 2.54 1.91 1.55 1.37 1.36 1.43
3.35 2.97 3.22 1.88 2.57 1.58 1.25 1.46 1.62 1.83 1.80 1.64 1.43 0.90 0.70 0.90 1.67 0.94 0.72 0.57 0.43 0.52 1.19 1.40 2.76 2.00 1.59 1.53 1.32 1.86 1.61 1.57 1.63 2.53 2.82 2.88 3.30 2.56 2.47 2.06 1.88 1.79 1.81 2.04 2.43
4.38 4.36 4.43 3.64 1.57 1.02 1.35 1.78 1.55 1.34 1.47 1.32 1.42 0.89 0.97 0.93 0.72 1.10 0.70 0.55 0.60 0.72 0.95 1.87 2.19 1.67 1.44 1.56 1.78 1.70 1.36 1.46 1.94 3.03 2.08 2.75 2.13 1.80 2.05 2.44 2.47 2.61 2.96 3.08 3.04
3.90 3.20 1.81 1.91 0.94 0.69 1.48 2.25 1.81 1.68 1.29 1.37 1.83 1.13 1.03 1.49 0.90 0.72 0.47 0.48 0.66 0.94 1.18 2.58 2.46 1.23 1.09 0.94 1.37 1.80 1.60 1.53 2.37 2.27 2.82 2.32 1.75 2.07 2.55 3.06 3.23 2.90 2.61 2.52 2.79
3.44 2.37 1.37 1.01 0.65 0.89 1.88 2.40 2.04 1.37 1.61 1.55 1.42 0.75 1.05 1.74 1.50 1.26 1.01 1.03 1.17 0.95 1.15 1.62 2.05 1.21 1.35 1.13 1.46 1.53 1.29 1.44 1.58 1.92 2.22 1.74 2.05 2.05 2.36 2.47 2.58 2.63 2.28 2.11 2.25
2.88 2.12 2.13 2.32 1.41 1.44 1.45 1.36 1.40 1.53 2.04 1.42 1.25 1.33 1.18 1.21 1.37 1.30 1.23 1.22 1.35 1.20 1.22 1.56 1.75 1.84 2.02 1.21 1.53 1.82 1.30 0.99 1.18 1.40 1.48 1.71 1.79 1.49 1.52 1.40 1.62 1.76 1.69 1.71 1.67